TimeEST,TemperatureF,Dew PointF,Humidity,Sea Level PressureIn,VisibilityMPH,Wind Direction,Wind SpeedMPH,Gust SpeedMPH,PrecipitationIn,Events,Conditions,WindDirDegrees,DateUTC
12:53 AM,17.1,7.0,65,30.21,10.0,SSE,6.9,-,N/A,,Clear,160,2013-02-18 05:53:00
1:53 AM,17.1,7.0,65,30.20,10.0,SSE,8.1,-,N/A,,Clear,150,2013-02-18 06:53:00
2:53 AM,17.1,7.0,65,30.20,10.0,SSE,6.9,-,N/A,,Clear,160,2013-02-18 07:53:00
3:53 AM,18.0,8.1,65,30.18,10.0,SSE,10.4,-,N/A,,Partly Cloudy,160,2013-02-18 08:53:00
4:53 AM,19.0,9.0,65,30.16,10.0,SSE,9.2,-,N/A,,Scattered Clouds,150,2013-02-18 09:53:00
5:53 AM,21.0,10.0,63,30.12,10.0,SSE,12.7,-,N/A,,Overcast,150,2013-02-18 10:53:00
6:53 AM,21.9,10.9,63,30.09,10.0,SSE,11.5,-,N/A,,Overcast,150,2013-02-18 11:53:00
7:53 AM,23.0,10.9,60,30.07,10.0,SSE,15.0,-,N/A,,Overcast,150,2013-02-18 12:53:00
8:53 AM,24.8,12.2,59,30.00,10.0,SSE,16.1,21.9,N/A,,Mostly Cloudy,160,2013-02-18 13:53:00
9:53 AM,28.0,14.0,56,30.00,10.0,SSE,17.3,25.3,N/A,,Clear,150,2013-02-18 14:53:00
10:53 AM,34.0,17.1,50,29.98,10.0,SSE,17.3,25.3,N/A,,Clear,160,2013-02-18 15:53:00
11:53 AM,35.1,17.1,48,29.95,10.0,SSE,20.7,26.5,N/A,,Clear,160,2013-02-18 16:53:00
12:53 PM,37.0,19.0,48,29.91,10.0,South,15.0,25.3,N/A,,Clear,170,2013-02-18 17:53:00
1:53 PM,37.0,19.9,50,29.87,10.0,SSE,17.3,-,N/A,,Clear,160,2013-02-18 18:53:00
2:53 PM,37.9,21.0,51,29.84,10.0,South,20.7,26.5,N/A,,Clear,170,2013-02-18 19:53:00
3:53 PM,37.9,21.9,53,29.78,10.0,SSE,17.3,26.5,N/A,,Clear,150,2013-02-18 20:53:00
4:53 PM,39.9,24.1,53,29.77,10.0,South,13.8,25.3,N/A,,Clear,180,2013-02-18 21:53:00
5:53 PM,39.9,26.1,58,29.75,10.0,SSE,15.0,21.9,N/A,,Mostly Cloudy,160,2013-02-18 22:53:00
6:53 PM,41.0,28.0,60,29.74,10.0,South,15.0,-,N/A,,Overcast,170,2013-02-18 23:53:00
7:53 PM,43.0,30.0,60,29.72,10.0,South,20.7,27.6,N/A,,Overcast,170,2013-02-19 00:53:00
8:53 PM,43.0,32.0,65,29.68,10.0,South,11.5,-,N/A,,Overcast,170,2013-02-19 01:53:00
9:53 PM,46.0,32.0,58,29.65,10.0,South,17.3,25.3,N/A,,Overcast,180,2013-02-19 02:53:00
10:53 PM,46.0,33.1,61,29.62,10.0,South,17.3,23.0,N/A,,Overcast,180,2013-02-19 03:53:00
11:53 PM,48.0,34.0,58,29.57,10.0,South,16.1,24.2,0.00,,Overcast,190,2013-02-19 04:53:00